User: anonymous   Login
Location: Caltech
(34.1382°N, 118.1253°W)
Time: 12:09:52
(UTC-07:00)
Language:

Gbstr 26 Del rocket - Orbit

View from above orbital plane
View from above orbital plane
View from above satellite
View from above satellite

Ground track
Ground track

The orbit data is extracted from the following two-line orbital elements,

1 25876U 99041E   15143.30060802  .00001135  00000-0  23575-3 0  9999
2 25876 051.7665 057.6314 0535860 346.1565 012.5146 14.03264892808445
Epoch (UTC): 23 May 2015 07:12:52
Eccentricity: 0.0535860
inclination: 51.7665°
perigee height: 493 km
apogee height: 1271 km
right ascension of ascending node: 57.6314°
argument of perigee: 346.1565°
revolutions per day: 14.03264892
mean anomaly at epoch: 12.5146°
orbit number at epoch: 80844

The dashed part of the orbit path shows where the satellite is in the earth's shadow,  

DLR